                ,  1.160,  1.308,  1.456,  1.604,  1.751,  1.899,  2.047,  2.194,  2.342,  2.490,  2.638,  2.785,  2.933,  3.081,  3.229,  3.376,  3.524,  3.672,  3.819,  3.967,  4.115,  4.263,  4.410,  4.558,  4.706,  4.853,  5.001,  5.149,  5.297,  5.444
2006/06/20 00:00,  999.0,  999.0,  999.0,   10.0,  999.0,  999.0,   11.2,   12.2,   10.2,   11.9,    8.9,  999.0,  999.0,  999.0,  999.0,  999.0,  999.0,  999.0,  999.0,  999.0,  999.0,  999.0,  999.0,  999.0,  999.0,  999.0,  999.0,  999.0,  999.0,  999.0
2006/06/20 00:10,    8.3,   10.0,  999.0,  999.0,    8.2,   10.2,   11.4,   11.3,   11.5,   10.8,  999.0,  999.0,  999.0,  999.0,  999.0,  999.0,  999.0,  999.0,  999.0,  999.0,  999.0,  999.0,  999.0,  999.0,  999.0,   -2.4,   -3.8,   -3.9,   -3.8,   -4.3
2006/06/20 00:20,   11.5,   11.3,   10.0,  999.0,  999.0,  999.0,   11.2,   11.4,   12.1,   10.9,    9.9,    8.4,    5.3,    2.7,    1.6,    1.4,    0.4,   -0.4,   -1.6,   -2.2,   -2.1,   -2.9,   -2.6,  999.0,  999.0,   -1.4,   -2.9,   -4.6,   -4.2,   -3.5
2006/06/20 00:30,    4.5,    7.3,    7.9,    8.1,    8.7,   10.2,   11.4,   12.3,   12.8,   11.2,    9.7,    8.1,    6.2,    3.2,    1.0,    0.6,    0.6,    0.4,    0.2,   -0.7,   -1.1,   -1.1,   -1.0,   -2.6,  999.0,  999.0,  999.0,  999.0,  999.0,  999.0
2006/06/20 00:40,    4.3,    7.0,    8.0,    8.3,    9.5,   10.7,   11.5,   12.0,   12.4,   11.5,   10.8,   10.6,    6.6,    5.1,    2.3,    2.2,    1.9,    0.7,    0.0,   -0.5,   -0.7,   -1.5,   -0.9,    1.3,   -0.6,   -2.4,   -2.8,   -3.4,   -3.4,   -2.1
2006/06/20 00:50,    3.4,    6.3,    8.0,    8.4,    9.6,   11.1,   11.8,   12.3,   12.4,   12.3,   11.7,    9.6,    6.2,    3.4,    0.5,   -0.5,   -0.8,   -1.5,   -1.5,   -2.3,   -3.0,   -2.7,   -1.6,   -0.7,   -3.1,   -3.4,   -2.3,   -1.5,   -1.1,   -0.7
2006/06/20 01:00,    3.2,    6.1,    7.4,    8.2,    9.6,   10.9,   11.4,   12.4,   12.1,    9.7,    7.7,    7.3,    5.4,    2.5,    0.6,   -0.8,   -2.0,   -3.2,   -2.8,   -4.4,   -4.7,   -3.8,   -3.8,   -4.2,   -4.0,   -2.3,   -2.1,   -1.7,   -1.4,   -2.4
2006/06/20 01:10,    3.3,    5.6,    7.1,    7.1,    8.0,    9.8,   10.8,   11.5,   10.6,    7.4,    6.4,    6.1,    4.8,    5.5,    1.8,   -0.8,   -1.9,   -4.1,   -5.7,   -6.7,   -5.3,   -5.6,   -3.0,   -0.1,  999.0,  999.0,  999.0,   -1.2,   -1.9,   -2.3
2006/06/20 01:20,    5.2,    4.5,    6.7,    6.5,    7.1,    8.5,   10.1,   11.8,    9.5,    7.1,    7.8,    8.0,    7.0,    4.5,    3.2,    0.6,   -0.8,   -1.5,   -1.7,   -2.7,   -1.9,   -1.0,   -1.6,    0.4,   -0.4,    0.5,    0.6,   -1.0,   -1.2,   -2.2
2006/06/20 01:30,    3.9,    5.2,    5.8,    6.1,    6.6,    8.5,    9.6,   10.2,   11.0,   10.8,    9.2,    6.7,    6.2,    6.5,    4.1,    1.8,    1.3,    1.1,   -0.9,   -0.8,   -1.9,   -2.5,   -0.2,  999.0,   -0.5,    0.4,    0.5,    1.5,  999.0,  999.0
2006/06/20 01:40,    5.5,    6.5,    7.5,    8.4,    9.5,    9.3,    8.3,    7.6,    8.0,    8.8,    9.4,    8.6,    6.6,    5.6,    5.1,    4.2,    3.4,    2.9,    1.6,    0.4,    3.5,   -0.6,   -0.6,    5.4,    4.0,  999.0,  999.0,  999.0,  999.0,  999.0
2006/06/20 01:50,    5.1,    5.6,    6.9,    8.2,    7.9,    7.8,    7.8,   11.2,   12.6,   11.6,   10.3,    9.3,    8.2,    5.3,    6.3,  999.0,  999.0,  999.0,   -0.6,    0.8,  999.0,  999.0,  999.0,   -0.6,    0.3,  999.0,  999.0,  999.0,  999.0,    0.1
2006/06/20 02:00,    3.5,    5.0,    5.8,    6.2,    7.0,   10.2,    9.8,   11.3,   11.4,   10.6,    9.0,    9.2,    8.2,    5.2,  999.0,    0.5,  999.0,    1.3,   -2.1,  999.0,  999.0,  999.0,  999.0,    0.3,   -0.0,  999.0,  999.0,  999.0,  999.0,  999.0
2006/06/20 02:10,    2.9,    4.5,    4.5,    7.7,    9.3,    9.9,   11.3,   11.2,   11.2,   10.7,    8.6,    9.0,  999.0,  999.0,  999.0,  999.0,  999.0,  999.0,  999.0,  999.0,  999.0,  999.0,  999.0,    3.1,    0.2,  999.0,  999.0,  999.0,  999.0,  999.0
2006/06/20 02:20,    1.9,    2.4,    5.6,    5.6,    7.6,   10.5,    9.8,   11.0,  999.0,  999.0,  999.0,  999.0,  999.0,  999.0,  999.0,  999.0,  999.0,  999.0,  999.0,  999.0,  999.0,  999.0,  999.0,  999.0,  999.0,  999.0,  999.0,  999.0,  999.0,  999.0
2006/06/20 02:30,    1.0,    3.2,    4.3,    5.6,    7.4,    9.4,   11.9,   11.7,   11.3,   10.8,  999.0,  999.0,    9.2,  999.0,  999.0,  999.0,  999.0,  999.0,  999.0,  999.0,  999.0,  999.0,  999.0,  999.0,  999.0,  999.0,  999.0,  999.0,  999.0,  999.0
2006/06/20 02:40,    1.5,    3.6,    5.2,    5.8,    7.2,    8.2,   10.9,   10.9,   10.8,   10.9,   10.3,    9.9,    9.5,  999.0,  999.0,  999.0,  999.0,  999.0,  999.0,  999.0,  999.0,  999.0,  999.0,  999.0,  999.0,  999.0,  999.0,  999.0,  999.0,  999.0
2006/06/20 02:50,    1.7,    4.2,    5.6,    6.2,    6.8,    7.7,    9.5,    9.5,    9.5,   11.5,   12.0,  999.0,  999.0,  999.0,  999.0,  999.0,  999.0,  999.0,  999.0,  999.0,  999.0,  999.0,  999.0,  999.0,  999.0,  999.0,  999.0,  999.0,  999.0,  999.0
2006/06/20 03:00,    3.4,    5.1,    6.3,    6.5,    8.4,    9.3,    9.3,    9.7,    9.9,   11.0,   11.8,    9.9,  999.0,  999.0,  999.0,  999.0,  999.0,  999.0,  999.0,  999.0,  999.0,  999.0,  999.0,  999.0,  999.0,  999.0,  999.0,  999.0,  999.0,  999.0
2006/06/20 03:10,    1.4,    4.3,    6.7,    7.2,    7.4,    8.1,    8.4,    9.9,   10.7,   11.2,  999.0,  999.0,  999.0,  999.0,  999.0,  999.0,  999.0,  999.0,  999.0,  999.0,  999.0,  999.0,  999.0,   -0.0,  999.0,  999.0,  999.0,  999.0,  999.0,  999.0
2006/06/20 03:20,    4.0,    6.3,    7.2,    7.0,    6.8,    7.7,    8.4,   10.1,   11.3,   11.7,  999.0,    9.8,  999.0,  999.0,  999.0,  999.0,  999.0,  999.0,  999.0,  999.0,  999.0,  999.0,  999.0,  999.0,  999.0,  999.0,  999.0,  999.0,  999.0,  999.0
2006/06/20 03:30,  999.0,    5.0,    7.1,    7.8,    7.6,    8.9,    9.1,   11.9,   12.4,  999.0,  999.0,  999.0,    7.1,  999.0,  999.0,    1.9,  999.0,  999.0,  999.0,  999.0,  999.0,  999.0,  999.0,   -0.5,   -0.1,  999.0,  999.0,  999.0,  999.0,  999.0
2006/06/20 03:40,    3.7,    6.0,    6.8,    5.7,    7.8,    8.6,    9.2,   10.8,   11.1,  999.0,  999.0,  999.0,  999.0,  999.0,  999.0,  999.0,  999.0,  999.0,  999.0,  999.0,  999.0,  999.0,  999.0,   -0.3,  999.0,  999.0,  999.0,  999.0,  999.0,  999.0
2006/06/20 03:50,   -0.4,    3.8,    5.6,    7.4,    8.9,    7.8,    9.7,   11.7,   12.4,    8.8,    9.2,    7.9,  999.0,  999.0,  999.0,  999.0,  999.0,  999.0,  999.0,  999.0,  999.0,  999.0,  999.0,  999.0,  999.0,  999.0,  999.0,  999.0,  999.0,  999.0
2006/06/20 04:00,  999.0,  999.0,  999.0,    7.3,  999.0,  999.0,  999.0,   10.4,  999.0,    8.1,   10.8,   10.3,    9.0,  999.0,  999.0,  999.0,  999.0,  999.0,  999.0,  999.0,  999.0,  999.0,  999.0,  999.0,  999.0,  999.0,  999.0,  999.0,  999.0,  999.0
2006/06/20 04:10,  999.0,  999.0,    4.3,  999.0,  999.0,  999.0,  999.0,  999.0,  999.0,  999.0,  999.0,  999.0,  999.0,   19.7,   16.7,  999.0,  999.0,  999.0,  999.0,  999.0,  999.0,  999.0,  999.0,  999.0,  999.0,  999.0,  999.0,  999.0,  999.0,  999.0
2006/06/20 04:20,  999.0,  999.0,  999.0,  999.0,  999.0,  999.0,  999.0,  999.0,  999.0,  999.0,  999.0,  999.0,  999.0,  999.0,  999.0,  999.0,  999.0,  999.0,  999.0,  999.0,  999.0,  999.0,  999.0,  999.0,  999.0,  999.0,  999.0,  999.0,  999.0,  999.0
